SCP
0 0 0 0 0 0 0 0 0 0 0 0 0 0 0 0 0 0 0 0 0 0 0 0 0 0 0 0 0 0 0 0 0 0 0 0 0 0 0 0 0 0 0
0 0 0 0 0 0 0 0 0 0 0 0 0 0 0 0 0 0 0 0 0 0 0 0 0 0 0 0 0 0 0 0 0 0 0 0 0 0 0 0 0 0 0
0 0 0 0 0 0 0 0 0 0 0 0 0 0 0 0 0 0 0 0 0 0 0 0 0 0 0 0 0 0 0 0 0 0 0 0 0 0 0 0 0 0 0
0 0 0 0 0 0 0 0 0 0 0 0 0 0 0 0 0 0 0 0 0 0 0 0 0 0 0 0 0 0 0 0 0 0 0 0 0 0 0 0 0 0 0
0 0 0 0 0 0 0 0 0 0 0 0 0 0 0 0 0 0 0 0 0 0 0 0 0 0 0 0 0 0 0 0 0 0 0 0 0 0 0 0 0 0 0
0 0 0 0 0 0 0 0 0 0 0 0 0 0 0 0 0 0 0 0 0 0 0 0 0 0 0 0 0 0 0 0 0 0 0 0 0 0 0 0 0 0 0
0 0 0 0 0 0 0 0 0 0 0 0 0 0 0 0 0 0 0 0 0 0 0 0 0 0 0 0 0 0 0 0 0 0 0 0 0 0 0 0 0 0 0
0 0 0 0 0 0 0 0 0 0 0 0 0 0 0 0 0 0 0 0 0 0 0 0 0 0 0 0 0 0 0 0 0 0 0 0 0 0 0 0 0 0 0
0 0 0 0 0 0 0 0 0 0 0 0 0 0 0 0 0 0 0 0 0 0 0 0 0 0 0 0 0 0 0 0 0 0 0 0 0 0 0 0 0 0 0
0 0 0 0 0 0 0 0 0 0 0 0 0 0 0 0 0 0 0 0 0 0 0 0 0 0 0 0 0 0 0 0 0 0 0 0 0 0 0 0 0 0 0
0 0 0 0 0 0 0 0 0 0 0 0 0 0 0 0 0 0 0 0 0 0 0 0 0 0 0 0 0 0 0 0 0 0 0 0 0 0 0 0 0 0 0
0 0 0 0 0 0 0 0 0 0 0 0 0 0 0 0 0 0 0 0 0 0 0 0 0 0 0 0 0 0 0 0 0 0 0 0 0 0 0 0 0 0 0
0 0 0 0 0 0 0 0 0 0 0 0 0 0 0 0 0 0 0 0 0 0 0 0 0 0 0 0 0 0 0 0 0 0 0 0 0 0 0 0 0 0 0
0 0 0 0 0 0 0 0 0 0 0 0 0 0 0 0 0 0 0 0 0 0 0 0 0 0 0 0 0 0 0 0 0 0 0 0 0 0 0 0 0 0 0
0 0 0 0 0 0 0 0 0 0 0 0 0 0 1 1 1 1 0 0 0 0 0 0 0 0 0 0 0 0 0 0 0 0 0 0 0 0 0 0 0 0 0
0 0 0 0 0 0 0 0 0 0 0 1 1 1 1 1 1 1 0 0 1 0 0 0 0 0 0 0 0 0 0 0 0 0 0 0 0 0 0 0 0 0 0
0 0 0 0 0 0 0 0 0 0 0 1 1 1 1 1 1 1 1 1 1 1 0 0 0 0 0 0 0 0 0 0 0 0 0 0 0 0 0 0 0 0 0
0 0 0 0 0 0 0 0 0 0 0 1 1 1 1 1 1 1 1 1 1 1 0 0 0 0 0 0 0 0 0 0 0 0 0 0 0 0 0 0 0 0 0
0 0 0 0 0 0 0 0 0 0 0 1 1 1 1 1 1 1 1 0 0 0 0 0 0 0 0 0 0 0 0 0 0 0 0 0 0 0 0 0 0 0 0
0 0 0 0 0 0 0 0 0 0 0 0 1 1 1 0 0 0 0 0 0 0 0 0 0 0 0 0 0 0 0 0 0 0 0 0 0 0 0 0 0 0 0
0 0 0 0 0 0 0 0 0 0 0 0 0 0 0 0 0 0 0 0 0 0 0 0 0 0 0 0 0 0 0 0 0 0 0 0 0 0 0 0 0 0 0
0 0 0 0 0 0 0 0 0 0 0 0 0 0 0 0 0 0 0 0 0 0 0 0 0 0 0 0 0 0 0 0 0 0 0 0 0 0 0 0 0 0 0
0 0 0 0 0 0 0 0 0 0 0 0 0 0 0 0 0 0 0 0 0 0 0 0 0 0 0 0 0 0 0 0 0 0 0 0 0 0 0 0 0 0 0
0 0 0 0 0 0 0 0 0 0 0 0 0 0 0 0 0 0 0 0 0 0 0 0 0 0 0 0 0 0 0 0 0 0 0 0 0 0 0 0 0 0 0
0 0 0 0 0 0 0 0 0 0 0 0 0 0 0 0 0 0 0 0 0 0 0 0 0 0 0 0 0 0 0 0 0 0 0 0 0 0 0 0 0 0 0
0 0 0 0 0 0 0 0 0 0 0 0 0 0 0 0 0 0 0 0 0 0 0 0 0 0 0 0 0 0 0 0 0 0 0 0 0 0 0 0 0 0 0
Wind_Speed
1 1 1 1 1 1 1 1 1 0 1 2 2 2 2 2 2 2 3 6 5 6 6 7 8 8 8 8 9 9 10 10 10 10 10 10 10 10 9 10 10 10 10
2 1 1 1 1 1 1 1 1 1 1 1 1 1 2 2 2 2 2 5 7 6 6 6 7 8 8 8 9 9 9 10 10 10 10 10 10 10 10 10 10 10 10
2 1 1 1 1 1 1 1 1 1 1 1 1 1 1 1 1 1 1 1 3 6 6 5 6 7 8 8 9 9 9 10 10 10 10 10 10 10 10 10 10 10 10
2 1 1 1 2 1 1 0 1 1 1 1 0 0 1 1 1 1 1 1 1 2 5 6 5 6 7 7 9 9 9 10 10 10 10 10 10 9 9 10 10 10 10
2 1 2 2 1 1 1 1 1 1 1 1 0 1 1 1 1 1 0 1 1 1 1 5 5 5 5 5 7 8 8 9 9 10 10 10 11 10 9 9 9 9 10
3 2 2 2 2 1 1 1 1 1 1 1 1 1 0 0 0 0 1 1 1 2 2 2 3 4 5 4 4 6 7 8 8 8 9 10 11 10 10 10 9 9 9
2 2 2 1 1 1 1 1 1 0 0 1 1 0 0 1 1 0 0 1 0 1 1 1 1 1 3 5 3 2 3 5 5 6 7 8 10 10 10 10 10 9 9
2 1 1 1 1 1 1 1 1 2 1 1 2 2 1 1 1 0 0 0 1 0 1 2 1 1 2 1 4 4 4 3 3 3 5 6 8 8 9 10 10 10 9
2 2 2 2 2 2 1 1 2 2 2 1 2 3 2 1 1 1 1 1 1 1 1 0 1 1 2 0 2 4 4 3 3 3 3 4 5 7 8 8 8 10 10
1 2 2 2 2 2 2 2 1 3 2 2 1 1 2 2 2 1 0 1 0 1 1 1 1 1 1 1 2 4 4 2 1 2 3 4 4 4 5 6 7 8 9
1 2 2 2 2 2 2 3 3 3 2 3 2 2 1 1 2 2 1 1 1 0 1 1 1 1 0 1 1 4 4 2 1 1 2 3 4 5 5 5 6 7 7
1 2 2 2 2 2 2 2 3 2 2 3 3 2 2 2 2 2 2 2 1 1 0 1 1 1 0 1 2 6 3 2 1 1 1 2 3 4 5 5 5 6 7
1 2 2 2 2 2 2 2 2 3 2 2 2 2 2 2 2 2 2 2 2 1 0 0 1 1 1 1 2 4 2 2 1 0 1 1 2 3 4 4 5 6 6
2 2 2 2 2 2 2 2 2 2 2 2 2 2 3 2 2 2 2 3 3 2 1 1 1 0 1 1 2 1 1 3 1 1 1 1 1 2 2 3 3 4 5
1 2 2 2 2 2 2 3 2 3 3 3 2 2 2 2 2 2 2 3 3 3 2 1 1 1 0 0 0 1 1 3 2 1 1 1 1 1 2 2 3 4 4
1 1 1 2 2 2 2 3 2 2 3 2 2 3 3 2 2 2 2 2 3 4 3 1 1 1 1 1 1 2 1 3 4 3 2 2 2 2 2 3 3 4 4
1 1 1 2 2 2 2 2 3 3 3 3 3 2 2 3 2 2 2 2 2 3 2 2 1 0 1 2 1 2 2 2 2 5 4 3 3 3 2 2 2 3 3
1 1 1 1 2 2 2 3 3 3 3 3 3 3 3 2 2 2 2 2 2 2 3 2 2 1 2 2 2 3 2 2 2 4 5 4 4 4 3 3 3 3 3
1 1 1 1 2 2 3 3 3 3 3 4 4 3 3 2 2 2 2 2 2 2 2 3 3 1 2 2 2 3 3 2 3 3 6 6 5 4 4 3 3 3 3
0 1 1 1 2 2 3 3 3 3 3 3 3 3 3 3 2 2 2 2 2 2 2 3 2 2 2 2 3 3 2 2 3 2 1 2 5 7 5 4 3 3 3
1 1 1 1 2 1 3 4 4 3 3 3 3 3 3 3 4 4 4 2 2 3 2 2 2 2 2 2 2 3 2 2 2 2 2 2 2 3 4 6 5 3 3
1 1 1 1 2 3 6 7 7 4 3 3 3 3 2 1 2 2 3 4 4 4 3 3 3 2 2 2 2 3 3 3 2 1 2 3 2 1 2 1 4 4 4
1 1 1 1 2 4 6 6 7 5 3 3 3 3 3 3 3 3 2 3 3 4 4 5 4 4 3 2 3 4 3 4 3 2 3 3 2 2 2 2 7 5 4
1 1 1 1 1 4 5 6 7 4 2 3 3 3 3 3 4 5 4 3 3 2 3 4 3 4 3 2 3 4 4 4 4 3 3 4 3 2 2 1 7 6 5
1 1 1 1 1 3 5 6 8 3 2 2 3 4 4 4 7 7 4 3 3 3 1 1 2 2 2 2 4 4 4 4 3 2 2 3 3 2 2 2 4 8 7
1 1 1 1 1 2 4 6 8 4 2 2 2 2 5 5 6 6 4 4 4 4 4 2 2 3 4 4 5 5 5 4 4 3 1 2 3 2 3 2 0 2 4
Wind_Direction
70 55 39 7 327 332 207 243 277 330 257 222 223 203 209 189 206 219 157 162 192 205 218 215 209 206 203 205 206 205 204 205 204 202 201 202 201 201 203 205 208 207 205
44 43 43 5 346 327 352 315 323 313 298 259 228 213 229 213 193 215 211 172 181 192 208 212 209 206 203 206 207 207 207 209 206 201 200 201 202 205 208 210 211 210 208
48 41 46 1 4 4 11 327 345 316 284 238 214 198 204 221 213 200 238 224 181 182 194 204 206 202 204 207 212 214 211 210 210 207 207 206 208 207 211 215 216 215 214
40 33 38 29 33 17 4 10 304 291 345 331 118 202 141 139 208 197 210 200 210 176 175 185 198 195 205 214 217 218 217 214 211 212 214 212 210 209 214 220 222 220 218
37 30 48 35 3 24 7 331 29 316 9 0 2 180 188 169 202 203 180 204 173 200 176 147 167 178 195 211 219 221 218 213 211 214 215 213 211 210 212 216 220 219 218
42 13 58 36 349 25 6 2 9 344 318 317 325 15 263 176 187 134 237 198 181 183 188 156 173 175 180 198 213 218 216 213 208 213 216 218 213 208 211 216 217 217 217
37 25 24 45 345 27 357 344 322 177 259 320 278 251 191 172 107 140 258 318 173 164 153 149 232 234 171 170 187 174 176 182 187 202 211 214 213 214 214 216 214 213 209
20 30 26 339 13 3 21 354 330 310 327 307 299 289 241 180 139 105 161 124 345 55 155 179 199 215 271 164 125 137 138 148 156 179 196 203 210 212 214 216 217 214 211
14 7 11 351 347 326 8 331 317 300 299 295 319 305 300 315 341 139 39 51 21 336 285 191 200 190 219 154 133 143 134 131 153 157 171 186 200 209 214 212 216 219 214
17 10 6 356 340 334 344 305 331 299 295 297 288 308 318 330 299 288 212 93 40 293 299 292 277 183 196 174 118 97 128 133 148 181 189 190 188 189 200 211 219 221 217
35 15 5 353 340 333 345 335 326 315 314 314 314 311 301 260 260 263 278 266 223 250 287 292 311 315 141 129 132 100 117 125 140 226 214 204 197 197 203 213 221 217 213
51 33 2 356 334 342 343 321 314 314 322 326 315 309 293 286 282 276 267 262 277 305 353 344 329 321 52 83 78 84 104 115 100 286 239 219 207 204 209 214 219 218 216
44 30 3 352 343 342 335 325 317 325 320 311 299 302 305 298 301 296 277 277 272 259 236 237 308 333 337 10 85 104 124 145 157 223 225 216 215 216 215 213 215 215 214
23 21 4 353 347 339 337 332 317 319 327 307 309 314 298 303 302 289 281 281 272 255 241 302 292 300 328 318 70 169 136 137 157 216 229 210 216 211 217 207 197 202 203
17 21 8 357 351 351 343 323 332 326 321 301 302 297 292 306 298 300 284 285 287 277 259 221 261 47 289 343 45 260 276 108 157 192 216 214 212 215 213 208 205 203 207
13 4 5 356 349 348 341 320 321 340 321 315 311 318 306 302 304 289 276 276 277 279 283 307 273 294 323 261 189 268 258 152 191 195 207 213 199 196 207 213 214 206 209
13 356 358 351 341 345 343 335 330 334 324 316 306 307 307 314 316 300 292 282 279 273 256 262 253 242 269 286 283 280 270 262 180 171 189 203 205 201 199 198 206 202 205
33 23 4 350 335 357 346 336 329 332 324 322 324 328 323 319 305 301 304 292 286 274 263 269 273 260 244 252 266 278 279 277 286 147 171 191 201 206 208 209 208 206 209
57 38 8 355 350 356 354 348 336 331 329 328 329 326 322 324 315 325 301 301 290 272 261 254 260 280 267 269 263 258 266 283 277 167 173 180 185 200 206 208 210 214 218
65 56 25 356 350 1 357 341 331 328 329 329 329 331 330 332 330 313 289 289 292 290 268 257 265 264 269 264 265 265 258 245 277 285 268 198 183 194 194 198 208 216 221
53 46 18 357 343 2 16 353 325 325 330 328 337 346 357 7 1 334 320 315 294 277 274 269 271 272 281 287 283 285 286 277 250 272 275 250 207 213 193 191 200 206 205
42 23 11 2 349 26 29 3 333 329 333 335 340 336 325 15 340 305 317 320 311 292 295 291 286 299 310 305 309 295 296 287 281 302 286 278 265 262 243 208 131 158 186
99 47 19 8 22 44 29 1 341 322 337 347 347 338 332 18 345 337 318 263 265 271 283 291 298 303 300 304 306 292 301 305 309 313 278 277 278 287 282 119 130 151 173
104 66 44 21 12 48 29 359 333 301 342 352 355 356 356 2 8 346 323 322 310 297 273 264 283 285 290 302 288 281 280 264 253 251 267 275 280 277 285 163 143 160 176
124 117 93 48 15 43 30 359 329 311 353 359 0 19 9 12 17 348 318 315 315 309 305 310 303 288 326 307 298 281 272 268 270 261 234 271 282 285 277 254 151 164 178
155 193 110 84 28 27 46 10 334 316 349 346 11 44 52 26 12 348 325 322 317 322 323 308 242 225 225 221 229 262 280 279 282 283 286 279 280 286 281 272 286 183 190